Location: Chaumontel
(49.1247°N, 2.4324°E)
Time: 13:58:32
(UTC+00:00)

IRIDIUM 103 - Visible Passes

Search period start: 25 September 2023 00:00
Search period end: 05 October 2023 00:00
Orbit: 776 x 779 km, 86.4° (Epoch: 24 September)

Date Brightness Start Highest point End Pass type
(mag) Time Alt. Az. Time Alt. Az. Time Alt. Az.
25 Sep 6.3 18:55:39 10° NE 18:56:51 11° ENE 18:56:59 11° ENE visible
25 Sep 4.8 20:33:25 10° N 20:37:28 51° NNE 20:37:28 51° NNE visible
25 Sep 6.7 22:15:19 10° NW 22:17:57 18° WNW 22:17:57 18° WNW visible
26 Sep 5.0 20:00:04 10° N 20:04:06 37° NE 20:04:06 37° NE visible
26 Sep 6.1 21:41:04 10° NNW 21:44:34 28° WNW 21:44:34 28° WNW visible
27 Sep 5.5 19:26:58 10° NNE 19:30:44 24° ENE 19:30:44 24° ENE visible
27 Sep 5.3 21:07:11 10° NNW 21:11:13 44° NW 21:11:13 44° NW visible
28 Sep 6.0 18:54:20 10° NNE 18:57:17 15° ENE 18:57:24 15° ENE visible
28 Sep 4.6 20:33:31 10° N 20:37:53 63° N 20:37:53 63° N visible
28 Sep 7.0 22:16:15 10° NW 22:18:21 13° WNW 22:18:21 13° WNW visible
29 Sep 4.6 20:00:03 10° N 20:04:33 52° NE 20:04:33 52° NE visible
29 Sep 6.4 21:41:32 10° NNW 21:45:02 22° WNW 21:45:02 22° WNW visible
30 Sep 5.1 19:26:46 10° NNE 19:31:14 33° ENE 19:31:14 33° ENE visible
30 Sep 5.6 21:07:28 10° NNW 21:11:43 36° WNW 21:11:43 36° WNW visible
01 Oct 5.6 18:53:48 10° NNE 18:57:38 20° ENE 18:57:57 20° ENE visible
01 Oct 4.7 20:33:40 10° N 20:38:25 61° WNW 20:38:25 61° WNW visible
02 Oct 6.1 18:21:38 10° NE 18:23:39 12° ENE 18:24:40 11° ENE visible
02 Oct 4.2 20:00:05 10° N 20:05:09 75° ENE 20:05:09 75° ENE visible
02 Oct 6.7 21:42:12 10° NW 21:45:24 17° WNW 21:45:38 16° WNW visible
03 Oct 4.6 19:26:41 10° N 19:31:42 45° E 19:31:54 44° E visible
03 Oct 6.1 21:07:50 10° NNW 21:12:12 27° W 21:12:23 27° W visible
04 Oct 5.2 18:53:31 10° NNE 18:57:56 27° ENE 18:58:41 26° E visible
04 Oct 5.2 20:33:54 10° NNW 20:38:53 46° W 20:39:10 45° W visible
